Maugansville, MD

8:32 PM EDT on August 24, 2016 (GMT -0400)
Hagerstown Regional-Henson

Weather History for KHGR - April, 2014

Change the Weather History Date:

Saturday, April 5, 2014

  Actual Average Record
Temperature  
Mean Temperature 46 °F 49 °F  
Max Temperature 50 °F 59 °F 70 °F (2005)
Min Temperature 42 °F 39 °F 26 °F (2004)
Degree Days  
Heating Degree Days 19 16  
Month to date heating degree days 69 85  
Since 1 July heating degree days 4943 4717  
Cooling Degree Days 0 0  
Month to date cooling degree days 0 0  
Year to date cooling degree days 0 1  
Moisture  
Dew Point 34 °F    
Average Humidity 71    
Maximum Humidity 100    
Minimum Humidity 42    
Precipitation  
Precipitation 0.00 in 0.13 in 0.25 in (2011)
Month to date precipitation 0.07 0.66  
Year to date precipitation 5.52 9.27  
Sea Level Pressure  
Sea Level Pressure 29.95 in    
Wind  
Wind Speed 14 mph (NW)    
Max Wind Speed 26 mph    
Max Gust Speed 33 mph    
Visibility 7 miles    
Events Fog    
T = Trace of Precipitation, MM = Missing Value Source: NWS Daily Summary

Daily Weather History Graph

Daily Weather History Graph

Search for Another Location

Airport or City:

Trip Planner

Search our weather history database for the weather conditions in past years. The results will help you decide how hot, cold, wet, or windy it might be!

Date:

Astronomy

Apr. 05, 2014 Rise Set
Actual Time 6:48 AM EDT 7:39 PM EDT
Civil Twilight 6:21 AM EDT 8:06 PM EDT
Nautical Twilight 5:49 AM EDT 8:38 PM EDT
Astronomical Twilight 5:15 AM EDT 9:12 PM EDT
Moon 10:55 AM EDT (4/5) 12:46 AM EDT (4/5)
Length of Visible Light 13h 44m
Length of Day
12h 50m
Waxing Crescent, 34% of the Moon is Illuminated
Apr 5
Waxing Crescent
Apr 7
First Quarter
Apr 15
Full
Apr 22
Last Quarter
Apr 29
New

Hourly Weather History & Observations

Time (EDT) Temp. Windchill Dew Point Humidity Pressure Visibility Wind Dir Wind Speed Gust Speed Precip Events Conditions
12:24 AM 46.0 °F 44.8 °F 44.1 °F 93% 29.74 in 2.5 mi ENE 3.5 mph - N/A   Partly Cloudy
12:53 AM 45.0 °F 43.5 °F 44.1 °F 97% 29.77 in 2.0 mi NNW 3.5 mph - N/A   Partly Cloudy
1:02 AM 44.1 °F 41.5 °F 43.0 °F 96% 29.75 in 1.0 mi NW 4.6 mph - N/A   Mist
1:08 AM 43.0 °F 39.5 °F 43.0 °F 100% 29.75 in 0.2 mi WNW 5.8 mph - N/A Fog Fog
1:25 AM 44.1 °F 40.1 °F 44.1 °F 100% 29.74 in 0.2 mi NNW 6.9 mph - N/A Fog Fog
1:34 AM 45.0 °F 40.6 °F 44.1 °F 97% 29.76 in 0.5 mi NNW 8.1 mph - N/A Fog Fog
1:48 AM 44.6 °F 40.7 °F 44.6 °F 100% 29.76 in 0.2 mi NW 6.9 mph - N/A Fog Fog
1:53 AM 45.0 °F 40.6 °F 45.0 °F 100% 29.80 in 0.2 mi NNW 8.1 mph - N/A Fog Fog
2:53 AM 44.1 °F - 44.1 °F 100% 29.82 in 0.2 mi Calm Calm - N/A Fog Fog
3:15 AM 45.0 °F 41.8 °F 44.1 °F 97% 29.79 in 1.0 mi East 5.8 mph - N/A   Mist
3:23 AM 44.1 °F 41.5 °F 42.1 °F 93% 29.79 in 8.0 mi Variable 4.6 mph - N/A   Mostly Cloudy
3:53 AM 45.0 °F - 39.9 °F 82% 29.83 in 10.0 mi Calm Calm - N/A   Mostly Cloudy
4:53 AM 46.9 °F - 35.1 °F 63% 29.86 in 10.0 mi WNW 13.8 mph - N/A   Overcast
5:53 AM 46.0 °F 41.4 °F 32.0 °F 58% 29.90 in 10.0 mi NW 9.2 mph - N/A   Overcast
6:53 AM 45.0 °F 37.9 °F 30.9 °F 58% 29.91 in 10.0 mi West 16.1 mph 23.0 mph N/A   Mostly Cloudy
7:53 AM 45.0 °F 37.6 °F 30.9 °F 58% 29.94 in 10.0 mi WNW 17.3 mph - N/A   Overcast
8:53 AM 45.0 °F 37.1 °F 30.0 °F 56% 29.96 in 10.0 mi WNW 19.6 mph 28.8 mph N/A   Overcast
9:53 AM 44.1 °F 36.5 °F 28.9 °F 55% 29.99 in 10.0 mi West 17.3 mph - N/A   Overcast
10:53 AM 46.0 °F 38.3 °F 28.9 °F 51% 30.01 in 10.0 mi NW 20.7 mph - N/A   Overcast
11:53 AM 46.9 °F - 27.0 °F 46% 30.03 in 10.0 mi West 18.4 mph 28.8 mph N/A   Mostly Cloudy
12:53 PM 48.0 °F - 26.1 °F 42% 30.04 in 10.0 mi WNW 17.3 mph 29.9 mph N/A   Overcast
1:53 PM 46.9 °F - 26.1 °F 44% 30.06 in 10.0 mi West 16.1 mph - N/A   Overcast
2:53 PM 48.0 °F - 28.0 °F 46% 30.06 in 10.0 mi WNW 18.4 mph - N/A   Overcast
3:53 PM 48.0 °F - 27.0 °F 44% 30.08 in 10.0 mi WNW 18.4 mph - N/A   Overcast
4:53 PM 48.9 °F - 27.0 °F 43% 30.09 in 10.0 mi WNW 17.3 mph 24.2 mph N/A   Mostly Cloudy
5:53 PM 48.0 °F - 26.1 °F 42% 30.11 in 10.0 mi WNW 17.3 mph - N/A   Partly Cloudy
6:53 PM 46.9 °F - 26.1 °F 44% 30.12 in 10.0 mi NW 16.1 mph - N/A   Clear
7:53 PM 43.0 °F 35.7 °F 25.0 °F 49% 30.14 in 10.0 mi NW 15.0 mph - N/A   Clear
8:53 PM 41.0 °F 34.7 °F 25.0 °F 53% 30.18 in 10.0 mi NW 10.4 mph - N/A   Clear
9:53 PM 39.9 °F 35.1 °F 25.0 °F 55% 30.20 in 10.0 mi WNW 6.9 mph - N/A   Clear
10:53 PM 37.9 °F 31.5 °F 25.0 °F 60% 30.21 in 10.0 mi WNW 9.2 mph - N/A   Clear
11:53 PM 37.0 °F 31.6 °F 25.0 °F 62% 30.21 in 10.0 mi NW 6.9 mph - N/A   Clear